Year,Month,Day,Hour,Minute,Value (Times are PST for windgust in km/hr)
2010,08,30,00,00,3.20
2010,08,30,00,01,1.60
2010,08,30,00,02,1.60
2010,08,30,00,06,1.60
2010,08,30,00,09,1.60
2010,08,30,00,12,1.60
2010,08,30,00,14,3.20
2010,08,30,00,15,3.20
2010,08,30,00,16,9.60
2010,08,30,00,17,8.10
2010,08,30,00,18,3.20
2010,08,30,00,20,4.80
2010,08,30,00,21,6.40
2010,08,30,00,22,3.20
2010,08,30,00,23,4.80
2010,08,30,00,24,3.20
2010,08,30,00,25,3.20
2010,08,30,00,28,1.60
2010,08,30,00,31,1.60
2010,08,30,00,32,1.60
2010,08,30,00,33,1.60
2010,08,30,00,34,3.20
2010,08,30,00,38,1.60
2010,08,30,00,39,3.20
2010,08,30,00,40,1.60
2010,08,30,00,41,1.60
2010,08,30,00,46,3.20
2010,08,30,00,47,1.60
2010,08,30,00,50,1.60
2010,08,30,00,51,3.20
2010,08,30,00,52,3.20
2010,08,30,00,58,1.60
2010,08,30,00,59,3.20
2010,08,30,01,00,3.20
2010,08,30,01,01,4.80
2010,08,30,01,02,3.20
2010,08,30,01,03,1.60
2010,08,30,01,04,1.60
2010,08,30,01,06,1.60
2010,08,30,01,12,1.60
2010,08,30,01,13,3.20
2010,08,30,01,14,1.60
2010,08,30,01,15,1.60
2010,08,30,01,16,6.40
2010,08,30,01,17,1.60
2010,08,30,01,18,1.60
2010,08,30,01,19,1.60
2010,08,30,01,25,3.20
2010,08,30,01,26,3.20
2010,08,30,01,27,3.20
2010,08,30,01,28,1.60
2010,08,30,01,35,3.20
2010,08,30,01,36,3.20
2010,08,30,01,37,4.80
2010,08,30,01,38,3.20
2010,08,30,01,39,3.20
2010,08,30,01,40,1.60
2010,08,30,01,41,1.60
2010,08,30,01,42,1.60
2010,08,30,01,44,1.60
2010,08,30,01,45,1.60
2010,08,30,01,49,1.60
2010,08,30,01,53,1.60
2010,08,30,01,54,1.60
2010,08,30,01,59,1.60
2010,08,30,02,01,1.60
2010,08,30,02,03,1.60
2010,08,30,02,11,1.60
2010,08,30,02,12,1.60
2010,08,30,02,13,1.60
2010,08,30,02,14,1.60
2010,08,30,02,15,1.60
2010,08,30,02,16,1.60
2010,08,30,02,17,1.60
2010,08,30,02,18,1.60
2010,08,30,02,37,1.60
2010,08,30,03,28,3.20
2010,08,30,03,29,1.60
2010,08,30,03,30,1.60
2010,08,30,03,31,3.20
2010,08,30,03,32,1.60
2010,08,30,03,33,1.60
2010,08,30,03,38,1.60
2010,08,30,03,43,1.60
2010,08,30,03,44,1.60
2010,08,30,03,54,1.60
2010,08,30,03,55,1.60
2010,08,30,03,56,3.20
2010,08,30,03,57,1.60
2010,08,30,03,58,3.20
2010,08,30,03,59,1.60
2010,08,30,04,12,1.60
2010,08,30,04,13,1.60
2010,08,30,04,14,1.60
2010,08,30,04,32,1.60
2010,08,30,04,34,1.60
2010,08,30,04,35,3.20
2010,08,30,04,36,3.20
2010,08,30,04,37,3.20
2010,08,30,04,38,3.20
2010,08,30,04,39,4.80
2010,08,30,04,40,4.80
2010,08,30,04,41,3.20
2010,08,30,04,45,1.60
2010,08,30,04,46,1.60
2010,08,30,04,57,3.20
2010,08,30,04,58,1.60
2010,08,30,04,59,1.60
2010,08,30,05,23,1.60
2010,08,30,05,25,1.60
2010,08,30,05,26,1.60
2010,08,30,05,31,1.60
2010,08,30,05,32,1.60
2010,08,30,05,33,1.60
2010,08,30,05,34,1.60
2010,08,30,05,35,1.60
2010,08,30,05,36,3.20
2010,08,30,05,37,1.60
2010,08,30,05,38,3.20
2010,08,30,05,39,1.60
2010,08,30,05,40,1.60
2010,08,30,05,41,3.20
2010,08,30,05,42,1.60
2010,08,30,05,43,1.60
2010,08,30,05,44,1.60
2010,08,30,05,45,4.80
2010,08,30,05,46,4.80
2010,08,30,05,47,3.20
2010,08,30,05,48,4.80
2010,08,30,05,49,4.80
2010,08,30,05,50,6.40
2010,08,30,05,51,4.80
2010,08,30,05,52,8.10
2010,08,30,05,53,6.40
2010,08,30,05,54,6.40
2010,08,30,05,55,8.10
2010,08,30,05,56,8.10
2010,08,30,05,57,6.40
2010,08,30,05,58,8.10
2010,08,30,05,59,6.40
2010,08,30,06,00,6.40
2010,08,30,06,01,6.40
2010,08,30,06,02,8.10
2010,08,30,06,03,6.40
2010,08,30,06,04,4.80
2010,08,30,06,05,6.40
2010,08,30,06,06,6.40
2010,08,30,06,07,8.10
2010,08,30,06,08,6.40
2010,08,30,06,09,6.40
2010,08,30,06,10,6.40
2010,08,30,06,11,8.10
2010,08,30,06,12,8.10
2010,08,30,06,13,8.10
2010,08,30,06,14,8.10
2010,08,30,06,15,8.10
2010,08,30,06,16,9.60
2010,08,30,06,17,8.10
2010,08,30,06,18,8.10
2010,08,30,06,19,9.60
2010,08,30,06,20,9.60
2010,08,30,06,21,8.10
2010,08,30,06,22,8.10
2010,08,30,06,23,6.40
2010,08,30,06,24,8.10
2010,08,30,06,25,11.30
2010,08,30,06,26,12.90
2010,08,30,06,27,11.30
2010,08,30,06,28,9.60
2010,08,30,06,29,9.60
2010,08,30,06,30,9.60
2010,08,30,06,31,8.10
2010,08,30,06,32,8.10
2010,08,30,06,33,4.80
2010,08,30,06,34,6.40
2010,08,30,06,35,4.80
2010,08,30,06,36,4.80
2010,08,30,06,37,6.40
2010,08,30,06,38,4.80
2010,08,30,06,39,6.40
2010,08,30,06,40,6.40
2010,08,30,06,41,4.80
2010,08,30,06,42,6.40
2010,08,30,06,43,6.40
2010,08,30,06,44,3.20
2010,08,30,06,45,4.80
2010,08,30,06,46,4.80
2010,08,30,06,47,6.40
2010,08,30,06,48,4.80
2010,08,30,06,49,3.20
2010,08,30,06,50,4.80
2010,08,30,06,51,4.80
2010,08,30,06,52,6.40
2010,08,30,06,53,4.80
2010,08,30,06,54,6.40
2010,08,30,06,55,4.80
2010,08,30,06,56,3.20
2010,08,30,06,57,3.20
2010,08,30,06,58,4.80
2010,08,30,06,59,6.40
2010,08,30,07,00,6.40
2010,08,30,07,01,8.10
2010,08,30,07,02,8.10
2010,08,30,07,03,6.40
2010,08,30,07,04,3.20
2010,08,30,07,05,3.20
2010,08,30,07,06,6.40
2010,08,30,07,07,3.20
2010,08,30,07,08,6.40
2010,08,30,07,09,8.10
2010,08,30,07,10,9.60
2010,08,30,07,11,8.10
2010,08,30,07,12,8.10
2010,08,30,07,13,6.40
2010,08,30,07,14,4.80
2010,08,30,07,15,4.80
2010,08,30,07,16,4.80
2010,08,30,07,17,6.40
2010,08,30,07,18,4.80
2010,08,30,07,19,3.20
2010,08,30,07,20,3.20
2010,08,30,07,21,4.80
2010,08,30,07,22,3.20
2010,08,30,07,23,3.20
2010,08,30,07,24,8.10
2010,08,30,07,25,8.10
2010,08,30,07,26,3.20
2010,08,30,07,27,6.40
2010,08,30,07,28,6.40
2010,08,30,07,29,8.10
2010,08,30,07,30,6.40
2010,08,30,07,31,6.40
2010,08,30,07,32,8.10
2010,08,30,07,33,6.40
2010,08,30,07,34,4.80
2010,08,30,07,35,3.20
2010,08,30,07,36,6.40
2010,08,30,07,37,8.10
2010,08,30,07,38,6.40
2010,08,30,07,39,6.40
2010,08,30,07,40,3.20
2010,08,30,07,41,4.80
2010,08,30,07,42,6.40
2010,08,30,07,43,4.80
2010,08,30,07,44,9.60
2010,08,30,07,45,8.10
2010,08,30,07,46,6.40
2010,08,30,07,47,8.10
2010,08,30,07,48,8.10
2010,08,30,07,49,9.60
2010,08,30,07,50,8.10
2010,08,30,07,51,8.10
2010,08,30,07,52,9.60
2010,08,30,07,53,6.40
2010,08,30,07,54,9.60
2010,08,30,07,55,9.60
2010,08,30,07,56,9.60
2010,08,30,07,57,8.10
2010,08,30,07,58,11.30
2010,08,30,07,59,4.80
2010,08,30,08,00,11.30
2010,08,30,08,01,6.40
2010,08,30,08,02,8.10
2010,08,30,08,03,11.30
2010,08,30,08,04,6.40
2010,08,30,08,05,6.40
2010,08,30,08,06,6.40
2010,08,30,08,07,11.30
2010,08,30,08,08,9.60
2010,08,30,08,09,6.40
2010,08,30,08,10,6.40
2010,08,30,08,11,8.10
2010,08,30,08,12,6.40
2010,08,30,08,13,8.10
2010,08,30,08,14,9.60
2010,08,30,08,15,6.40
2010,08,30,08,16,4.80
2010,08,30,08,17,1.60
2010,08,30,08,18,3.20
2010,08,30,08,19,8.10
2010,08,30,08,20,9.60
2010,08,30,08,21,9.60
2010,08,30,08,22,9.60
2010,08,30,08,23,9.60
2010,08,30,08,24,6.40
2010,08,30,08,25,11.30
2010,08,30,08,26,9.60
2010,08,30,08,27,9.60
2010,08,30,08,28,9.60
2010,08,30,08,29,11.30
2010,08,30,08,30,11.30
2010,08,30,08,31,14.50
2010,08,30,08,32,16.10
2010,08,30,08,33,14.50
2010,08,30,08,34,16.10
2010,08,30,08,35,11.30
2010,08,30,08,36,11.30
2010,08,30,08,37,6.40
2010,08,30,08,38,8.10
2010,08,30,08,39,8.10
2010,08,30,08,40,8.10
2010,08,30,08,41,11.30
2010,08,30,08,42,9.60
2010,08,30,08,43,6.40
2010,08,30,08,44,9.60
2010,08,30,08,45,9.60
2010,08,30,08,46,9.60
2010,08,30,08,47,4.80
2010,08,30,08,48,6.40
2010,08,30,08,49,6.40
2010,08,30,08,50,6.40
2010,08,30,08,51,16.10
2010,08,30,08,52,9.60
2010,08,30,08,53,8.10
2010,08,30,08,54,8.10
2010,08,30,08,55,11.30
2010,08,30,08,56,8.10
2010,08,30,08,57,11.30
2010,08,30,08,58,14.50
2010,08,30,08,59,14.50
2010,08,30,09,00,11.30
2010,08,30,09,01,6.40
2010,08,30,09,02,4.80
2010,08,30,09,03,8.10
2010,08,30,09,04,14.50
2010,08,30,09,05,11.30
2010,08,30,09,06,9.60
2010,08,30,09,07,14.50
2010,08,30,09,08,9.60
2010,08,30,09,09,11.30
2010,08,30,09,10,11.30
2010,08,30,09,11,9.60
2010,08,30,09,12,11.30
2010,08,30,09,13,9.60
2010,08,30,09,14,8.10
2010,08,30,09,15,6.40
2010,08,30,09,16,8.10
2010,08,30,09,17,8.10
2010,08,30,09,18,9.60
2010,08,30,09,19,9.60
2010,08,30,09,20,8.10
2010,08,30,09,21,6.40
2010,08,30,09,22,8.10
2010,08,30,09,23,8.10
2010,08,30,09,24,9.60
2010,08,30,09,25,8.10
2010,08,30,09,26,4.80
2010,08,30,09,27,8.10
2010,08,30,09,28,6.40
2010,08,30,09,29,8.10
2010,08,30,09,30,9.60
2010,08,30,09,31,11.30
2010,08,30,09,32,8.10
2010,08,30,09,33,8.10
2010,08,30,09,34,9.60
2010,08,30,09,35,8.10
2010,08,30,09,36,8.10
2010,08,30,09,37,9.60
2010,08,30,09,38,8.10
2010,08,30,09,39,11.30
2010,08,30,09,40,11.30
2010,08,30,09,41,11.30
2010,08,30,09,42,11.30
2010,08,30,09,43,14.50
2010,08,30,09,44,6.40
2010,08,30,09,45,14.50
2010,08,30,09,46,9.60
2010,08,30,09,47,8.10
2010,08,30,09,48,11.30
2010,08,30,09,49,11.30
2010,08,30,09,50,8.10
2010,08,30,09,51,12.90
2010,08,30,09,52,11.30
2010,08,30,09,53,14.50
2010,08,30,09,54,14.50
2010,08,30,09,55,14.50
2010,08,30,09,56,11.30
2010,08,30,09,57,8.10
2010,08,30,09,58,9.60
2010,08,30,09,59,11.30
2010,08,30,10,00,9.60
2010,08,30,10,01,9.60
2010,08,30,10,02,11.30
2010,08,30,10,03,9.60
2010,08,30,10,04,14.50
2010,08,30,10,05,9.60
2010,08,30,10,06,14.50
2010,08,30,10,07,16.10
2010,08,30,10,08,12.90
2010,08,30,10,09,11.30
2010,08,30,10,10,11.30
2010,08,30,10,11,11.30
2010,08,30,10,12,8.10
2010,08,30,10,13,8.10
2010,08,30,10,14,11.30
2010,08,30,10,15,11.30
2010,08,30,10,16,11.30
2010,08,30,10,17,9.60
2010,08,30,10,18,11.30
2010,08,30,10,19,8.10
2010,08,30,10,20,11.30
2010,08,30,10,21,6.40
2010,08,30,10,22,6.40
2010,08,30,10,23,14.50
2010,08,30,10,24,11.30
2010,08,30,10,25,16.10
2010,08,30,10,26,11.30
2010,08,30,10,27,14.50
2010,08,30,10,28,12.90
2010,08,30,10,29,12.90
2010,08,30,10,30,14.50
2010,08,30,10,31,11.30
2010,08,30,10,32,14.50
2010,08,30,10,33,14.50
2010,08,30,10,34,12.90
2010,08,30,10,35,14.50
2010,08,30,10,36,11.30
2010,08,30,10,37,12.90
2010,08,30,10,38,14.50
2010,08,30,10,39,9.60
2010,08,30,10,40,14.50
2010,08,30,10,41,9.60
2010,08,30,10,42,14.50
2010,08,30,10,43,14.50
2010,08,30,10,44,14.50
2010,08,30,10,45,9.60
2010,08,30,10,46,16.10
2010,08,30,10,47,17.70
2010,08,30,10,48,16.10
2010,08,30,10,49,16.10
2010,08,30,10,50,16.10
2010,08,30,10,51,16.10
2010,08,30,10,52,16.10
2010,08,30,10,53,11.30
2010,08,30,10,54,11.30
2010,08,30,10,55,16.10
2010,08,30,10,56,14.50
2010,08,30,10,57,14.50
2010,08,30,10,58,11.30
2010,08,30,10,59,14.50
2010,08,30,11,00,11.30
2010,08,30,11,01,11.30
2010,08,30,11,02,14.50
2010,08,30,11,03,11.30
2010,08,30,11,04,14.50
2010,08,30,11,05,9.60
2010,08,30,11,06,12.90
2010,08,30,11,07,9.60
2010,08,30,11,08,14.50
2010,08,30,11,09,14.50
2010,08,30,11,10,14.50
2010,08,30,11,11,16.10
2010,08,30,11,12,11.30
2010,08,30,11,13,11.30
2010,08,30,11,14,12.90
2010,08,30,11,15,16.10
2010,08,30,11,16,9.60
2010,08,30,11,17,9.60
2010,08,30,11,18,12.90
2010,08,30,11,19,11.30
2010,08,30,11,20,14.50
2010,08,30,11,21,14.50
2010,08,30,11,22,8.10
2010,08,30,11,23,11.30
2010,08,30,11,24,9.60
2010,08,30,11,25,14.50
2010,08,30,11,26,8.10
2010,08,30,11,27,11.30
2010,08,30,11,28,9.60
2010,08,30,11,29,11.30
2010,08,30,11,30,16.10
2010,08,30,11,31,11.30
2010,08,30,11,32,9.60
2010,08,30,11,33,11.30
2010,08,30,11,34,17.70
2010,08,30,11,35,14.50
2010,08,30,11,36,16.10
2010,08,30,11,37,11.30
2010,08,30,11,38,12.90
2010,08,30,11,39,12.90
2010,08,30,11,40,11.30
2010,08,30,11,41,14.50
2010,08,30,11,42,11.30
2010,08,30,11,43,11.30
2010,08,30,11,44,11.30
2010,08,30,11,45,6.40
2010,08,30,11,46,9.60
2010,08,30,11,47,11.30
2010,08,30,11,48,16.10
2010,08,30,11,49,12.90
2010,08,30,11,50,11.30
2010,08,30,11,51,11.30
2010,08,30,11,52,6.40
2010,08,30,11,53,8.10
2010,08,30,11,54,9.60
2010,08,30,11,55,9.60
2010,08,30,11,56,9.60
2010,08,30,11,57,11.30
2010,08,30,11,58,9.60
2010,08,30,11,59,9.60
2010,08,30,12,00,11.30
2010,08,30,12,01,11.30
2010,08,30,12,02,8.10
2010,08,30,12,03,11.30
2010,08,30,12,04,11.30
2010,08,30,12,05,9.60
2010,08,30,12,06,9.60
2010,08,30,12,07,9.60
2010,08,30,12,08,9.60
2010,08,30,12,09,9.60
2010,08,30,12,10,9.60
2010,08,30,12,11,9.60
2010,08,30,12,12,11.30
2010,08,30,12,13,11.30
2010,08,30,12,14,9.60
2010,08,30,12,15,8.10
2010,08,30,12,16,9.60
2010,08,30,12,17,9.60
2010,08,30,12,18,11.30
2010,08,30,12,19,11.30
2010,08,30,12,20,11.30
2010,08,30,12,21,11.30
2010,08,30,12,22,12.90
2010,08,30,12,23,11.30
2010,08,30,12,24,11.30
2010,08,30,12,25,9.60
2010,08,30,12,26,14.50
2010,08,30,12,27,12.90
2010,08,30,12,28,9.60
2010,08,30,12,29,11.30
2010,08,30,12,30,11.30
2010,08,30,12,31,8.10
2010,08,30,12,32,11.30
2010,08,30,12,33,9.60
2010,08,30,12,34,9.60
2010,08,30,12,35,9.60
2010,08,30,12,36,12.90
2010,08,30,12,37,11.30
2010,08,30,12,38,9.60
2010,08,30,12,39,11.30
2010,08,30,12,40,9.60
2010,08,30,12,41,11.30
2010,08,30,12,42,9.60
2010,08,30,12,43,8.10
2010,08,30,12,44,9.60
2010,08,30,12,45,9.60
2010,08,30,12,46,11.30
2010,08,30,12,47,11.30
2010,08,30,12,48,9.60
2010,08,30,12,49,9.60
2010,08,30,12,50,9.60
2010,08,30,12,51,9.60
2010,08,30,12,52,11.30
2010,08,30,12,53,8.10
2010,08,30,12,54,9.60
2010,08,30,12,55,11.30
2010,08,30,12,56,11.30
2010,08,30,12,57,11.30
2010,08,30,12,58,9.60
2010,08,30,12,59,14.50
2010,08,30,13,00,6.40
2010,08,30,13,01,9.60
2010,08,30,13,02,12.90
2010,08,30,13,03,11.30
2010,08,30,13,04,14.50
2010,08,30,13,05,9.60
2010,08,30,13,06,9.60
2010,08,30,13,07,11.30
2010,08,30,13,08,14.50
2010,08,30,13,09,11.30
2010,08,30,13,10,8.10
2010,08,30,13,11,11.30
2010,08,30,13,12,11.30
2010,08,30,13,13,11.30
2010,08,30,13,14,9.60
2010,08,30,13,15,9.60
2010,08,30,13,16,14.50
2010,08,30,13,17,12.90
2010,08,30,13,18,16.10
2010,08,30,13,19,11.30
2010,08,30,13,20,14.50
2010,08,30,13,21,14.50
2010,08,30,13,22,14.50
2010,08,30,13,23,9.60
2010,08,30,13,24,11.30
2010,08,30,13,25,11.30
2010,08,30,13,26,9.60
2010,08,30,13,27,11.30
2010,08,30,13,28,12.90
2010,08,30,13,29,12.90
2010,08,30,13,30,14.50
2010,08,30,13,31,14.50
2010,08,30,13,32,11.30
2010,08,30,13,33,11.30
2010,08,30,13,34,11.30
2010,08,30,13,35,11.30
2010,08,30,13,36,14.50
2010,08,30,13,37,12.90
2010,08,30,13,38,11.30
2010,08,30,13,39,14.50
2010,08,30,13,40,12.90
2010,08,30,13,41,11.30
2010,08,30,13,42,11.30
2010,08,30,13,43,11.30
2010,08,30,13,44,11.30
2010,08,30,13,45,12.90
2010,08,30,13,46,14.50
2010,08,30,13,47,11.30
2010,08,30,13,48,12.90
2010,08,30,13,49,14.50
2010,08,30,13,50,11.30
2010,08,30,13,51,9.60
2010,08,30,13,52,11.30
2010,08,30,13,53,9.60
2010,08,30,13,54,14.50
2010,08,30,13,55,12.90
2010,08,30,13,56,14.50
2010,08,30,13,57,9.60
2010,08,30,13,58,9.60
2010,08,30,13,59,8.10
2010,08,30,14,00,9.60
2010,08,30,14,01,9.60
2010,08,30,14,02,11.30
2010,08,30,14,03,9.60
2010,08,30,14,04,11.30
2010,08,30,14,05,11.30
2010,08,30,14,06,9.60
2010,08,30,14,07,8.10
2010,08,30,14,08,9.60
2010,08,30,14,09,11.30
2010,08,30,14,10,8.10
2010,08,30,14,11,8.10
2010,08,30,14,12,9.60
2010,08,30,14,13,8.10
2010,08,30,14,14,9.60
2010,08,30,14,15,11.30
2010,08,30,14,16,9.60
2010,08,30,14,17,9.60
2010,08,30,14,18,9.60
2010,08,30,14,19,9.60
2010,08,30,14,20,9.60
2010,08,30,14,21,11.30
2010,08,30,14,22,11.30
2010,08,30,14,23,8.10
2010,08,30,14,24,9.60
2010,08,30,14,25,9.60
2010,08,30,14,26,9.60
2010,08,30,14,27,8.10
2010,08,30,14,28,8.10
2010,08,30,14,29,9.60
2010,08,30,14,30,9.60
2010,08,30,14,31,11.30
2010,08,30,14,32,9.60
2010,08,30,14,33,6.40
2010,08,30,14,34,3.20
2010,08,30,14,35,9.60
2010,08,30,14,36,8.10
2010,08,30,14,37,9.60
2010,08,30,14,38,11.30
2010,08,30,14,39,8.10
2010,08,30,14,40,9.60
2010,08,30,14,41,8.10
2010,08,30,14,42,8.10
2010,08,30,14,43,9.60
2010,08,30,14,44,8.10
2010,08,30,14,45,9.60
2010,08,30,14,46,6.40
2010,08,30,14,47,6.40
2010,08,30,14,48,9.60
2010,08,30,14,49,8.10
2010,08,30,14,50,8.10
2010,08,30,14,51,8.10
2010,08,30,14,52,6.40
2010,08,30,14,53,6.40
2010,08,30,14,54,6.40
2010,08,30,14,55,8.10
2010,08,30,14,56,3.20
2010,08,30,14,57,4.80
2010,08,30,14,58,6.40
2010,08,30,14,59,8.10
2010,08,30,15,00,6.40
2010,08,30,15,01,8.10
2010,08,30,15,02,9.60
2010,08,30,15,03,8.10
2010,08,30,15,04,6.40
2010,08,30,15,05,4.80
2010,08,30,15,06,6.40
2010,08,30,15,07,8.10
2010,08,30,15,08,8.10
2010,08,30,15,09,6.40
2010,08,30,15,10,1.60
2010,08,30,15,11,6.40
2010,08,30,15,12,8.10
2010,08,30,15,13,8.10
2010,08,30,15,14,6.40
2010,08,30,15,15,6.40
2010,08,30,15,16,6.40
2010,08,30,15,17,8.10
2010,08,30,15,18,8.10
2010,08,30,15,19,6.40
2010,08,30,15,20,6.40
2010,08,30,15,21,4.80
2010,08,30,15,22,8.10
2010,08,30,15,23,9.60
2010,08,30,15,24,11.30
2010,08,30,15,25,4.80
2010,08,30,15,26,6.40
2010,08,30,15,27,9.60
2010,08,30,15,28,9.60
2010,08,30,15,29,11.30
2010,08,30,15,30,11.30
2010,08,30,15,31,8.10
2010,08,30,15,32,6.40
2010,08,30,15,33,8.10
2010,08,30,15,34,8.10
2010,08,30,15,35,6.40
2010,08,30,15,36,4.80
2010,08,30,15,37,6.40
2010,08,30,15,38,8.10
2010,08,30,15,39,8.10
2010,08,30,15,40,4.80
2010,08,30,15,41,8.10
2010,08,30,15,42,6.40
2010,08,30,15,43,4.80
2010,08,30,15,44,8.10
2010,08,30,15,45,8.10
2010,08,30,15,46,9.60
2010,08,30,15,47,4.80
2010,08,30,15,48,6.40
2010,08,30,15,49,11.30
2010,08,30,15,50,12.90
2010,08,30,15,51,9.60
2010,08,30,15,52,9.60
2010,08,30,15,53,9.60
2010,08,30,15,54,3.20
2010,08,30,15,55,4.80
2010,08,30,15,56,4.80
2010,08,30,15,57,4.80
2010,08,30,15,58,6.40
2010,08,30,15,59,6.40
2010,08,30,16,00,6.40
2010,08,30,16,01,8.10
2010,08,30,16,02,8.10
2010,08,30,16,03,9.60
2010,08,30,16,04,6.40
2010,08,30,16,05,4.80
2010,08,30,16,06,4.80
2010,08,30,16,07,4.80
2010,08,30,16,08,3.20
2010,08,30,16,09,4.80
2010,08,30,16,10,9.60
2010,08,30,16,11,4.80
2010,08,30,16,12,9.60
2010,08,30,16,13,4.80
2010,08,30,16,14,6.40
2010,08,30,16,15,9.60
2010,08,30,16,16,9.60
2010,08,30,16,17,9.60
2010,08,30,16,18,6.40
2010,08,30,16,19,11.30
2010,08,30,16,20,11.30
2010,08,30,16,21,6.40
2010,08,30,16,22,6.40
2010,08,30,16,23,8.10
2010,08,30,16,24,8.10
2010,08,30,16,25,8.10
2010,08,30,16,26,11.30
2010,08,30,16,27,11.30
2010,08,30,16,28,8.10
2010,08,30,16,29,11.30
2010,08,30,16,30,8.10
2010,08,30,16,31,11.30
2010,08,30,16,32,11.30
2010,08,30,16,33,9.60
2010,08,30,16,34,9.60
2010,08,30,16,35,12.90
2010,08,30,16,36,9.60
2010,08,30,16,37,9.60
2010,08,30,16,38,6.40
2010,08,30,16,39,8.10
2010,08,30,16,40,14.50
2010,08,30,16,41,9.60
2010,08,30,16,42,8.10
2010,08,30,16,43,11.30
2010,08,30,16,44,12.90
2010,08,30,16,45,6.40
2010,08,30,16,46,8.10
2010,08,30,16,47,9.60
2010,08,30,16,48,9.60
2010,08,30,16,49,8.10
2010,08,30,16,50,8.10
2010,08,30,16,51,9.60
2010,08,30,16,52,4.80
2010,08,30,16,53,6.40
2010,08,30,16,54,8.10
2010,08,30,16,55,6.40
2010,08,30,16,56,8.10
2010,08,30,16,57,8.10
2010,08,30,16,58,4.80
2010,08,30,16,59,3.20
2010,08,30,17,00,4.80
2010,08,30,17,01,6.40
2010,08,30,17,02,8.10
2010,08,30,17,03,11.30
2010,08,30,17,04,6.40
2010,08,30,17,05,9.60
2010,08,30,17,06,9.60
2010,08,30,17,07,8.10
2010,08,30,17,08,4.80
2010,08,30,17,09,8.10
2010,08,30,17,10,4.80
2010,08,30,17,11,6.40
2010,08,30,17,12,6.40
2010,08,30,17,13,9.60
2010,08,30,17,14,9.60
2010,08,30,17,15,8.10
2010,08,30,17,16,4.80
2010,08,30,17,17,8.10
2010,08,30,17,18,6.40
2010,08,30,17,19,6.40
2010,08,30,17,20,6.40
2010,08,30,17,21,6.40
2010,08,30,17,22,6.40
2010,08,30,17,23,9.60
2010,08,30,17,24,6.40
2010,08,30,17,25,11.30
2010,08,30,17,26,6.40
2010,08,30,17,27,8.10
2010,08,30,17,28,6.40
2010,08,30,17,29,9.60
2010,08,30,17,30,6.40
2010,08,30,17,31,6.40
2010,08,30,17,32,8.10
2010,08,30,17,33,6.40
2010,08,30,17,34,9.60
2010,08,30,17,35,6.40
2010,08,30,17,36,8.10
2010,08,30,17,37,3.20
2010,08,30,17,38,9.60
2010,08,30,17,39,9.60
2010,08,30,17,40,9.60
2010,08,30,17,41,9.60
2010,08,30,17,42,9.60
2010,08,30,17,43,4.80
2010,08,30,17,44,4.80
2010,08,30,17,45,4.80
2010,08,30,17,46,6.40
2010,08,30,17,47,8.10
2010,08,30,17,48,9.60
2010,08,30,17,49,4.80
2010,08,30,17,50,3.20
2010,08,30,17,51,3.20
2010,08,30,17,52,3.20
2010,08,30,17,53,6.40
2010,08,30,17,54,8.10
2010,08,30,17,55,4.80
2010,08,30,17,56,6.40
2010,08,30,17,57,3.20
2010,08,30,17,58,8.10
2010,08,30,17,59,8.10
2010,08,30,18,00,9.60
2010,08,30,18,01,8.10
2010,08,30,18,02,6.40
2010,08,30,18,03,6.40
2010,08,30,18,04,8.10
2010,08,30,18,05,9.60
2010,08,30,18,06,4.80
2010,08,30,18,07,3.20
2010,08,30,18,08,3.20
2010,08,30,18,09,6.40
2010,08,30,18,10,4.80
2010,08,30,18,11,3.20
2010,08,30,18,12,8.10
2010,08,30,18,13,6.40
2010,08,30,18,14,6.40
2010,08,30,18,15,6.40
2010,08,30,18,16,9.60
2010,08,30,18,17,8.10
2010,08,30,18,18,8.10
2010,08,30,18,19,4.80
2010,08,30,18,20,4.80
2010,08,30,18,21,4.80
2010,08,30,18,22,6.40
2010,08,30,18,23,6.40
2010,08,30,18,24,3.20
2010,08,30,18,25,6.40
2010,08,30,18,26,4.80
2010,08,30,18,27,4.80
2010,08,30,18,28,8.10
2010,08,30,18,29,3.20
2010,08,30,18,30,4.80
2010,08,30,18,31,6.40
2010,08,30,18,32,4.80
2010,08,30,18,33,4.80
2010,08,30,18,34,4.80
2010,08,30,18,35,4.80
2010,08,30,18,36,4.80
2010,08,30,18,37,3.20
2010,08,30,18,38,1.60
2010,08,30,18,39,6.40
2010,08,30,18,40,3.20
2010,08,30,18,41,4.80
2010,08,30,18,42,3.20
2010,08,30,18,43,6.40
2010,08,30,18,44,6.40
2010,08,30,18,45,3.20
2010,08,30,18,46,4.80
2010,08,30,18,47,4.80
2010,08,30,18,48,6.40
2010,08,30,18,49,4.80
2010,08,30,18,50,6.40
2010,08,30,18,51,8.10
2010,08,30,18,52,6.40
2010,08,30,18,53,3.20
2010,08,30,18,54,3.20
2010,08,30,18,55,3.20
2010,08,30,18,56,3.20
2010,08,30,18,57,4.80
2010,08,30,18,58,4.80
2010,08,30,18,59,4.80
2010,08,30,19,00,3.20
2010,08,30,19,01,1.60
2010,08,30,19,02,3.20
2010,08,30,19,03,6.40
2010,08,30,19,04,4.80
2010,08,30,19,05,6.40
2010,08,30,19,06,4.80
2010,08,30,19,07,6.40
2010,08,30,19,08,3.20
2010,08,30,19,09,3.20
2010,08,30,19,10,4.80
2010,08,30,19,11,4.80
2010,08,30,19,12,6.40
2010,08,30,19,13,4.80
2010,08,30,19,14,3.20
2010,08,30,19,17,3.20
2010,08,30,19,18,3.20
2010,08,30,19,44,4.80
2010,08,30,19,45,4.80
2010,08,30,19,46,3.20
2010,08,30,19,47,4.80
2010,08,30,19,48,4.80
2010,08,30,19,49,4.80
2010,08,30,19,50,3.20
2010,08,30,19,51,6.40
2010,08,30,19,52,6.40
2010,08,30,19,53,4.80
2010,08,30,19,54,4.80
2010,08,30,19,55,3.20
2010,08,30,19,56,4.80
2010,08,30,19,57,3.20
2010,08,30,20,05,1.60
2010,08,30,20,07,1.60
2010,08,30,20,08,1.60
2010,08,30,20,14,3.20
2010,08,30,20,15,4.80
2010,08,30,20,16,6.40
2010,08,30,20,17,6.40
2010,08,30,20,18,8.10
2010,08,30,20,19,8.10
2010,08,30,20,20,6.40
2010,08,30,20,21,4.80
2010,08,30,20,22,1.60
2010,08,30,20,23,3.20
2010,08,30,20,24,1.60
2010,08,30,20,25,1.60
2010,08,30,20,26,1.60
2010,08,30,20,27,1.60
2010,08,30,20,28,3.20
2010,08,30,20,29,4.80
2010,08,30,20,30,4.80
2010,08,30,20,31,3.20
2010,08,30,20,32,4.80
2010,08,30,20,33,3.20
2010,08,30,20,34,1.60
2010,08,30,20,35,1.60
2010,08,30,20,38,3.20
2010,08,30,20,39,3.20
2010,08,30,20,41,3.20
2010,08,30,20,42,3.20
2010,08,30,20,43,4.80
2010,08,30,20,44,4.80
2010,08,30,20,45,1.60
2010,08,30,20,46,3.20
2010,08,30,20,47,3.20
2010,08,30,20,48,6.40
2010,08,30,20,49,4.80
2010,08,30,20,50,8.10
2010,08,30,20,51,4.80
2010,08,30,20,52,4.80
2010,08,30,20,54,4.80
2010,08,30,20,55,4.80
2010,08,30,20,56,3.20
2010,08,30,20,57,3.20
2010,08,30,20,58,4.80
2010,08,30,20,59,6.40
2010,08,30,21,00,6.40
2010,08,30,21,01,3.20
2010,08,30,21,02,1.60
2010,08,30,21,03,1.60
2010,08,30,21,04,1.60
2010,08,30,21,06,1.60
2010,08,30,21,07,1.60
2010,08,30,21,16,1.60
2010,08,30,21,17,1.60
2010,08,30,21,18,1.60
2010,08,30,21,19,3.20
2010,08,30,21,20,4.80
2010,08,30,21,21,3.20
2010,08,30,21,22,1.60
2010,08,30,21,25,1.60
2010,08,30,21,26,3.20
2010,08,30,21,27,1.60
2010,08,30,21,31,1.60
2010,08,30,21,32,8.10
2010,08,30,21,33,8.10
2010,08,30,21,34,3.20
2010,08,30,21,35,1.60
2010,08,30,21,36,1.60
2010,08,30,21,37,4.80
2010,08,30,21,38,6.40
2010,08,30,21,39,6.40
2010,08,30,21,40,1.60
2010,08,30,21,41,3.20
2010,08,30,21,42,4.80
2010,08,30,21,43,4.80
2010,08,30,21,44,3.20
2010,08,30,21,45,4.80
2010,08,30,21,46,4.80
2010,08,30,21,47,8.10
2010,08,30,21,48,6.40
2010,08,30,21,49,8.10
2010,08,30,21,50,6.40
2010,08,30,21,51,8.10
2010,08,30,21,52,9.60
2010,08,30,21,53,6.40
2010,08,30,21,54,8.10
2010,08,30,21,55,8.10
2010,08,30,21,56,8.10
2010,08,30,21,57,6.40
2010,08,30,21,58,6.40
2010,08,30,21,59,4.80
2010,08,30,22,00,8.10
2010,08,30,22,01,6.40
2010,08,30,22,02,6.40
2010,08,30,22,03,8.10
2010,08,30,22,04,9.60
2010,08,30,22,05,6.40
2010,08,30,22,06,4.80
2010,08,30,22,07,1.60
2010,08,30,22,09,1.60
2010,08,30,22,13,3.20
2010,08,30,22,14,1.60
2010,08,30,22,15,1.60
2010,08,30,22,16,9.60
2010,08,30,22,17,4.80
2010,08,30,22,18,8.10
2010,08,30,22,19,8.10
2010,08,30,22,20,8.10
2010,08,30,22,21,4.80
2010,08,30,22,22,1.60
2010,08,30,22,23,3.20
2010,08,30,22,24,4.80
2010,08,30,22,25,4.80
2010,08,30,22,26,4.80
2010,08,30,22,27,3.20
2010,08,30,22,28,1.60
2010,08,30,22,29,1.60
2010,08,30,22,30,3.20
2010,08,30,22,31,3.20
2010,08,30,22,32,3.20
2010,08,30,22,33,4.80
2010,08,30,22,34,4.80
2010,08,30,22,35,6.40
2010,08,30,22,36,3.20
2010,08,30,22,37,4.80